CW4498 Weather Reports


Display with metric or nautical units.
time (UTC)temp
F
wind
direction
speed
MPH
gust
MPH
rain 1hr
in
rain 24hr
in
rain mn
in
humidity
%
barometer
mb
20260906213001 83 122 4.0 13.0 0.00 0.00 0.00 36 1014.8
20260906211559 82 136 7.0 13.0 0.00 0.00 0.00 37 1015.0
20260906210111 83 126 4.0 11.0 0.00 0.00 0.00 38 1015.1
20260906204601 82 70 5.0 12.0 0.00 0.00 0.00 39 1015.2
20260906203059 82 125 3.0 10.0 0.00 0.00 0.00 38 1015.5
20260906201633 83 67 5.0 10.0 0.00 0.00 0.00 36 1015.8
20260906200054 83 107 3.0 10.0 0.00 0.00 0.00 36 1015.8
20260906194603 82 117 3.0 7.0 0.00 0.00 0.00 36 1015.7
20260906193051 82 148 2.0 11.0 0.00 0.00 0.00 36 1015.9
20260906191605 82 115 4.0 10.0 0.00 0.00 0.00 35 1016.2
20260906190048 81 125 4.0 10.0 0.00 0.00 0.00 36 1016.3
20260906184553 81 90 3.0 11.0 0.00 0.00 0.00 38 1016.5
20260906183046 81 122 3.0 9.0 0.00 0.00 0.00 37 1016.9
20260906181558 81 137 2.0 8.0 0.00 0.00 0.00 38 1017.2
20260906180042 80 144 2.0 10.0 0.00 0.00 0.00 39 1017.6
20260906174540 79 119 4.0 13.0 0.00 0.00 0.00 39 1017.8
20260906173040 78 98 3.0 8.0 0.00 0.00 0.00 38 1017.9
20260906171539 78 66 3.0 11.0 0.00 0.00 0.00 38 1018.2
20260906170038 78 122 3.0 8.0 0.00 0.00 0.00 37 1018.2
20260906164537 78 133 2.0 10.0 0.00 0.00 0.00 36 1018.2
20260906163049 78 151 1.0 6.0 0.00 0.00 0.00 34 1018.4
20260906161534 79 118 0.0 4.0 0.00 0.00 0.00 36 1018.3
20260906160033 79 96 0.0 5.0 0.00 0.00 0.00 34 1018.2
20260906154531 79 100 0.0 3.0 0.00 0.00 0.00 35 1018.1
20260906153032 78 120 1.0 3.0 0.00 0.00 0.00 36 1018.0
20260906151527 77 101 1.0 3.0 0.00 0.00 0.00 37 1018.0
20260906150029 76 140 0.0 1.0 0.00 0.00 0.00 40 1017.9
20260906144520 74 117 0.0 2.0 0.00 0.00 0.00 44 1017.9
20260906143015 69 100 0.0 1.0 0.00 0.00 0.00 49 1017.9
20260906141515 67 99 0.0 1.0 0.00 0.00 0.00 50 1017.9
20260906140015 67 100 0.0 1.0 0.00 0.00 0.00 52 1018.0
20260906134513 66 187 0.0 0.0 0.00 0.00 0.00 55 1017.7
20260906133016 64 225 0.0 0.0 0.00 0.00 0.00 55 1017.7
20260906131513 63 225 0.0 0.0 0.00 0.00 0.00 56 1017.7
20260906130012 63 225 0.0 1.0 0.00 0.00 0.00 55 1017.6
20260906124511 63 268 0.0 1.0 0.00 0.00 0.00 55 1017.6
20260906123017 63 268 0.0 0.0 0.00 0.00 0.00 55 1017.7
20260906121511 63 268 0.0 2.0 0.00 0.00 0.00 55 1017.6
20260906120010 63 268 0.0 1.0 0.00 0.00 0.00 55 1017.6
20260906114526 63 166 0.0 2.0 0.00 0.00 0.00 57 1017.5
20260906113008 63 272 0.0 0.0 0.00 0.00 0.00 55 1017.3
20260906111517 65 272 0.0 0.0 0.00 0.00 0.00 52 1017.1
20260906110008 66 272 0.0 1.0 0.00 0.00 0.00 51 1017.0
20260906104510 65 272 0.0 1.0 0.00 0.00 0.00 53 1017.0
20260906103006 64 267 1.0 2.0 0.00 0.00 0.00 56 1017.1
20260906101505 64 259 0.0 2.0 0.00 0.00 0.00 59 1017.5
20260906100005 65 156 0.0 2.0 0.00 0.00 0.00 55 1017.6
20260906094504 66 138 0.0 0.0 0.00 0.00 0.00 54 1017.6
20260906093004 67 138 0.0 1.0 0.00 0.00 0.00 52 1017.5
20260906091507 68 241 0.0 2.0 0.00 0.00 0.00 50 1017.3
20260906090002 69 16 0.0 3.0 0.00 0.00 0.00 51 1017.3
20260906084559 68 277 2.0 6.0 0.00 0.00 0.00 51 1017.3
20260906083055 66 283 0.0 4.0 0.00 0.00 0.00 56 1017.3
20260906081556 66 272 0.0 4.0 0.00 0.00 0.00 59 1017.6
20260906080050 64 286 0.0 1.0 0.00 0.00 0.00 64 1017.6
20260906074551 64 303 0.0 0.0 0.00 0.00 0.00 68 1017.7
20260906073048 65 302 0.0 2.0 0.00 0.00 0.00 67 1017.6
20260906071546 64 336 0.0 3.0 0.00 0.00 0.00 69 1017.7
20260906070045 63 298 0.0 1.0 0.00 0.00 0.00 70 1017.9
20260906064544 64 272 0.0 1.0 0.00 0.00 0.00 69 1017.9
20260906063044 64 271 0.0 1.0 0.00 0.00 0.00 68 1018.1
20260906061542 64 272 0.0 0.0 0.00 0.00 0.00 68 1017.9
20260906060056 65 271 0.0 0.0 0.00 0.00 0.00 67 1017.7
20260906054538 65 272 0.0 2.0 0.00 0.00 0.00 66 1017.6
20260906053039 65 272 0.0 0.0 0.00 0.00 0.00 67 1017.7
20260906051537 65 272 0.0 0.0 0.00 0.00 0.00 65 1017.7
20260906050038 66 272 0.0 0.0 0.00 0.00 0.00 64 1017.8
20260906044536 67 272 0.0 1.0 0.00 0.00 0.00 64 1018.0
20260906043040 67 271 0.0 0.0 0.00 0.00 0.00 64 1018.1
20260906041537 68 271 0.0 0.0 0.00 0.00 0.00 63 1018.2
20260906040038 68 272 0.0 0.0 0.00 0.00 0.00 61 1018.1
20260906034539 69 272 0.0 0.0 0.00 0.00 0.00 60 1018.3
20260906033036 70 272 0.0 1.0 0.00 0.00 0.00 58 1018.3
20260906031603 70 276 0.0 2.0 0.00 0.00 0.00 56 1018.1
20260906030032 70 117 0.0 4.0 0.00 0.00 0.00 51 1017.9
20260906024538 70 269 1.0 3.0 0.00 0.00 0.00 43 1017.8
20260906023038 72 132 0.0 1.0 0.00 0.00 0.00 37 1017.3
20260906021531 73 272 1.0 2.0 0.00 0.00 0.00 36 1016.6
20260906020037 73 272 0.0 2.0 0.00 0.00 0.00 36 1016.5
20260906014531 73 272 0.0 2.0 0.00 0.00 0.00 36 1016.5
20260906013030 73 283 0.0 0.0 0.00 0.00 0.00 37 1016.5
20260906011529 75 272 0.0 0.0 0.00 0.00 0.00 35 1016.5
20260906010030 76 272 0.0 0.0 0.00 0.00 0.00 33 1016.7
20260906004530 78 272 0.0 1.0 0.00 0.03 0.00 32 1016.7
20260906003028 78 272 0.0 2.0 0.00 0.03 0.00 31 1016.6
20260906001538 80 272 0.0 1.0 0.00 0.03 0.00 29 1016.6
20260906000028 82 272 0.0 0.0 0.00 0.03 0.00 28 1016.6
20260905234527 82 272 0.0 2.0 0.00 0.03 0.00 28 1016.6
20260905233026 80 325 0.0 1.0 0.00 0.03 0.00 30 1016.6
20260905231533 83 332 0.0 2.0 0.00 0.03 0.00 28 1016.6
20260905230026 83 275 0.0 2.0 0.00 0.03 0.00 29 1016.6
20260905224525 80 276 0.0 3.0 0.00 0.03 0.00 33 1016.7
20260905223025 79 279 0.0 3.0 0.00 0.03 0.00 32 1016.9
20260905221524 79 336 0.0 3.0 0.00 0.03 0.00 33 1016.7
20260905220024 78 325 1.0 3.0 0.00 0.03 0.00 32 1017.0
20260905214523 78 276 0.0 4.0 0.00 0.03 0.00 33 1017.0